| time (UTC) | temp C | wind direction | speed KPH | gust KPH | rain 1hr cm | rain 24hr cm | rain mn cm | humidity % | barometer mb |
| 20260508030100 | -17 | 319 | 0.0 | 3.2 | 0.00 | 0.00 | 0.00 | 1016.1 | |
| 20260508024603 | -17 | 319 | 0.0 | 6.4 | 0.00 | 0.00 | 0.00 | 1016.2 | |
| 20260508023050 | -17 | 319 | 0.0 | 3.2 | 0.00 | 0.00 | 0.00 | 1016.3 | |
| 20260508021546 | -17 | 319 | 0.0 | 8.0 | 0.00 | 0.00 | 0.00 | 1016.3 | |
| 20260508020042 | -17 | 319 | 0.0 | 6.4 | 0.00 | 0.00 | 0.00 | 1016.4 | |
| 20260508014538 | -17 | 319 | 4.8 | 9.7 | 0.00 | 0.00 | 0.00 | 1016.4 | |
| 20260508013036 | -17 | 319 | 0.0 | 6.4 | 0.00 | 0.00 | 0.00 | 1016.5 | |
| 20260508011530 | -17 | 319 | 3.2 | 9.7 | 0.00 | 0.00 | 0.00 | 1016.5 | |
| 20260508010027 | -17 | 319 | 0.0 | 8.0 | 0.00 | 0.00 | 0.00 | 1016.6 | |
| 20260508004520 | -17 | 319 | 1.6 | 6.4 | 0.00 | 0.00 | 0.00 | 1016.7 | |
| 20260508003016 | -17 | 319 | 0.0 | 8.0 | 0.00 | 0.00 | 0.00 | 1016.9 | |
| 20260508001511 | -17 | 319 | 4.8 | 9.7 | 0.00 | 0.00 | 0.00 | 1016.8 | |
| 20260508000008 | -17 | 319 | 0.0 | 6.4 | 0.00 | 0.00 | 0.00 | 1016.9 | |
| 20260507234505 | -17 | 319 | 1.6 | 6.4 | 0.00 | 0.00 | 0.00 | 1016.9 | |
| 20260507233059 | -17 | 319 | 0.0 | 3.2 | 0.00 | 0.00 | 0.00 | 1016.9 | |
| 20260507231558 | -17 | 319 | 3.2 | 8.0 | 0.00 | 0.00 | 0.00 | 1016.9 | |
| 20260507230050 | -17 | 319 | 1.6 | 8.0 | 0.00 | 0.00 | 0.00 | 1017.0 | |
| 20260507224548 | -17 | 319 | 0.0 | 6.4 | 0.00 | 0.00 | 0.00 | 1017.1 | |
| 20260507223041 | -17 | 319 | 0.0 | 6.4 | 0.00 | 0.00 | 0.00 | 1017.1 | |
| 20260507221537 | -17 | 319 | 0.0 | 3.2 | 0.00 | 0.00 | 0.00 | 1017.3 | |
| 20260507220033 | -17 | 319 | 0.0 | 9.7 | 0.00 | 0.00 | 0.00 | 1017.3 | |
| 20260507214530 | -17 | 319 | 6.4 | 9.7 | 0.00 | 0.00 | 0.00 | 1017.4 | |
| 20260507213025 | -17 | 319 | 0.0 | 8.0 | 0.00 | 0.00 | 0.00 | 1017.2 | |
| 20260507211521 | -17 | 319 | 0.0 | 6.4 | 0.00 | 0.00 | 0.00 | 1017.2 | |
| 20260507210017 | -17 | 319 | 0.0 | 9.7 | 0.00 | 0.00 | 0.00 | 1017.2 | |
| 20260507204513 | -17 | 319 | 0.0 | 6.4 | 0.00 | 0.00 | 0.00 | 1017.3 | |
| 20260507203011 | -17 | 319 | 0.0 | 3.2 | 0.00 | 0.00 | 0.00 | 1017.3 | |
| 20260507201503 | -17 | 319 | 0.0 | 3.2 | 0.00 | 0.00 | 0.00 | 1017.1 | |
| 20260507200107 | -17 | 319 | 0.0 | 9.7 | 0.00 | 0.00 | 0.00 | 1017.1 | |
| 20260507194555 | -17 | 322 | 0.0 | 8.0 | 0.00 | 0.00 | 0.00 | 1017.1 | |
| 20260507193053 | -17 | 322 | 4.8 | 8.0 | 0.00 | 0.00 | 0.00 | 1017.1 | |
| 20260507191546 | -17 | 322 | 4.8 | 8.0 | 0.00 | 0.00 | 0.00 | 1016.9 | |
| 20260507190046 | -17 | 322 | 3.2 | 11.3 | 0.00 | 0.00 | 0.00 | 1016.9 | |
| 20260507184545 | -17 | 323 | 3.2 | 12.9 | 0.00 | 0.00 | 0.00 | 1017.0 | |
| 20260507183046 | -17 | 320 | 4.8 | 12.9 | 0.00 | 0.00 | 0.00 | 1016.9 | |
| 20260507181544 | -17 | 319 | 6.4 | 12.9 | 0.00 | 0.00 | 0.00 | 1016.9 | |
| 20260507180047 | -17 | 319 | 4.8 | 9.7 | 0.00 | 0.00 | 0.00 | 1016.9 | |
| 20260507174550 | -17 | 320 | 8.0 | 12.9 | 0.00 | 0.00 | 0.00 | 1016.9 | |
| 20260507173046 | -17 | 321 | 8.0 | 14.5 | 0.00 | 0.00 | 0.00 | 1016.8 | |
| 20260507171555 | -17 | 286 | 6.4 | 16.1 | 0.00 | 0.00 | 0.00 | 1016.8 | |
| 20260507170044 | -17 | 329 | 9.7 | 12.9 | 0.00 | 0.00 | 0.00 | 1016.9 | |
| 20260507164541 | -17 | 342 | 9.7 | 19.3 | 0.00 | 0.00 | 0.00 | 1016.9 | |
| 20260507163040 | -17 | 342 | 9.7 | 16.1 | 0.00 | 0.00 | 0.00 | 1016.8 | |
| 20260507161539 | -17 | 355 | 9.7 | 16.1 | 0.00 | 0.00 | 0.00 | 1016.8 | |
| 20260507160044 | -17 | 329 | 9.7 | 14.5 | 0.00 | 0.00 | 0.00 | 1016.9 | |
| 20260507154538 | -17 | 325 | 11.3 | 14.5 | 0.00 | 0.00 | 0.00 | 1016.9 | |
| 20260507153032 | -17 | 325 | 9.7 | 12.9 | 0.00 | 0.00 | 0.00 | 1017.0 | |
| 20260507151528 | -17 | 327 | 9.7 | 12.9 | 0.00 | 0.00 | 0.00 | 1017.0 | |
| 20260507150124 | -17 | 326 | 11.3 | 14.5 | 0.00 | 0.00 | 0.00 | 1016.9 | |
| 20260507144519 | -17 | 325 | 9.7 | 16.1 | 0.00 | 0.00 | 0.00 | 1017.0 | |
| 20260507143015 | -17 | 329 | 9.7 | 16.1 | 0.00 | 0.00 | 0.00 | 1017.1 | |
| 20260507141510 | -17 | 330 | 9.7 | 14.5 | 0.00 | 0.00 | 0.00 | 1017.2 | |
| 20260507140007 | -17 | 331 | 11.3 | 17.7 | 0.00 | 0.00 | 0.00 | 1017.1 | |
| 20260507134502 | -17 | 336 | 11.3 | 17.7 | 0.00 | 0.00 | 0.00 | 1017.1 | |
| 20260507133058 | -17 | 360 | 8.0 | 16.1 | 0.00 | 0.00 | 0.00 | 1017.2 | |
| 20260507131552 | -17 | 338 | 9.7 | 17.7 | 0.00 | 0.00 | 0.00 | 1017.1 | |
| 20260507130048 | -17 | 355 | 11.3 | 22.5 | 0.00 | 0.00 | 0.00 | 1017.2 | |
| 20260507124544 | -17 | 360 | 8.0 | 19.3 | 0.00 | 0.00 | 0.00 | 1017.2 | |
| 20260507123040 | -17 | 349 | 12.9 | 19.3 | 0.00 | 0.00 | 0.00 | 1017.2 | |
| 20260507121534 | -17 | 348 | 14.5 | 19.3 | 0.00 | 0.00 | 0.00 | 1017.1 | |
| 20260507120030 | -17 | 344 | 14.5 | 19.3 | 0.00 | 0.00 | 0.00 | 1017.1 | |
| 20260507114525 | -17 | 344 | 11.3 | 20.9 | 0.00 | 0.00 | 0.00 | 1017.1 | |
| 20260507113023 | -17 | 343 | 14.5 | 24.1 | 0.00 | 0.00 | 0.00 | 1017.1 | |
| 20260507111525 | -17 | 175 | 6.4 | 12.9 | 0.00 | 0.00 | 0.00 | 1017.1 | |
| 20260507110013 | -17 | 344 | 8.0 | 20.9 | 0.00 | 0.00 | 0.00 | 1016.9 | |
| 20260507104510 | -17 | 188 | 1.6 | 9.7 | 0.00 | 0.00 | 0.00 | 1016.8 | |
| 20260507103004 | -17 | 187 | 3.2 | 16.1 | 0.00 | 0.00 | 0.00 | 1016.7 | |
| 20260507101600 | -17 | 190 | 14.5 | 24.1 | 0.00 | 0.00 | 0.00 | 1016.6 | |
| 20260507100055 | -17 | 185 | 12.9 | 19.3 | 0.00 | 0.00 | 0.00 | 1016.5 | |
| 20260507094551 | -17 | 181 | 12.9 | 19.3 | 0.00 | 0.00 | 0.00 | 1016.5 | |
| 20260507093048 | -17 | 203 | 3.2 | 16.1 | 0.00 | 0.00 | 0.00 | 1016.5 | |
| 20260507091543 | -17 | 175 | 8.0 | 17.7 | 0.00 | 0.00 | 0.00 | 1016.4 | |
| 20260507090038 | -17 | 173 | 9.7 | 16.1 | 0.00 | 0.00 | 0.00 | 1016.4 | |
| 20260507084537 | -17 | 182 | 11.3 | 20.9 | 0.00 | 0.00 | 0.00 | 1016.3 | |
| 20260507083029 | -17 | 188 | 6.4 | 17.7 | 0.00 | 0.00 | 0.00 | 1016.1 | |
| 20260507081526 | -17 | 184 | 8.0 | 20.9 | 0.00 | 0.00 | 0.00 | 1015.9 | |
| 20260507080019 | -17 | 176 | 11.3 | 17.7 | 0.00 | 0.00 | 0.00 | 1015.8 | |
| 20260507074515 | -17 | 175 | 8.0 | 20.9 | 0.00 | 0.00 | 0.00 | 1015.7 | |
| 20260507073011 | -17 | 178 | 9.7 | 14.5 | 0.00 | 0.00 | 0.00 | 1015.7 | |
| 20260507071507 | -17 | 157 | 0.0 | 9.7 | 0.00 | 0.00 | 0.00 | 1015.6 | |
| 20260507070003 | -17 | 157 | 1.6 | 11.3 | 0.00 | 0.00 | 0.00 | 1015.5 | |
| 20260507064558 | -17 | 150 | 6.4 | 11.3 | 0.00 | 0.00 | 0.00 | 1015.4 | |
| 20260507063054 | -17 | 149 | 4.8 | 11.3 | 0.00 | 0.00 | 0.00 | 1015.4 | |
| 20260507061549 | -17 | 119 | 6.4 | 9.7 | 0.00 | 0.00 | 0.00 | 1015.3 | |
| 20260507060056 | -17 | 116 | 0.0 | 8.0 | 0.00 | 0.00 | 0.00 | 1015.2 | |
| 20260507054547 | -17 | 116 | 3.2 | 9.7 | 0.00 | 0.00 | 0.00 | 1015.3 | |
| 20260507053038 | -17 | 116 | 6.4 | 9.7 | 0.00 | 0.00 | 0.00 | 1015.1 | |
| 20260507051531 | -17 | 116 | 8.0 | 11.3 | 0.00 | 0.00 | 0.00 | 1015.0 | |
| 20260507050026 | -17 | 90 | 9.7 | 12.9 | 0.00 | 0.00 | 0.00 | 1014.9 | |
| 20260507044543 | -17 | 335 | 6.4 | 16.1 | 0.00 | 0.00 | 0.00 | 1014.7 | |
| 20260507043018 | -17 | 355 | 9.7 | 17.7 | 0.00 | 0.00 | 0.00 | 1014.6 | |
| 20260507041513 | -17 | 330 | 8.0 | 14.5 | 0.00 | 0.00 | 0.00 | 1014.6 | |
| 20260507040009 | -17 | 171 | 0.0 | 0.0 | 0.00 | 0.00 | 0.00 | 1014.4 | |
| 20260507034505 | -17 | 171 | 1.6 | 14.5 | 0.00 | 0.00 | 0.00 | 1014.1 | |
| 20260507033001 | -17 | 169 | 0.0 | 12.9 | 0.00 | 0.00 | 0.00 | 1014.1 | |
| 20260507031556 | -17 | 169 | 3.2 | 8.0 | 0.00 | 0.00 | 0.00 | 1014.0 |